Location: Proctor
(47.8934°N, 114.3048°W)
Time: 18:26:26
(UTC+00:00)

Transit 4A - Pass Details

Date: 18 May 2025
Orbit: 866 x 975 km, 66.8° (Epoch: 13 June)

Event Time Altitude Azimuth Distance (km) Brightness Sun altitude
Rises 05:59:50 0° 289° (WNW) 3,651 11.6 -19.3°
Reaches altitude 10° 06:03:46 10° 313° (NW) 2,688 11.3 -19.5°
Maximum altitude 06:07:08 15° 346° (NNW) 2,345 11.1 -19.8°
Drops below altitude 10° 06:10:28 10° 19° (NNE) 2,652 11.0 -20.0°
Sets 06:14:19 0° 43° (NE) 3,571 11.3 -20.2°
